Probability
0 0 0 0 0 0 0 0 0 0 0 0 0 0 0 0 0 0 0 0 0 0 0 0 0 0 0 0 0 0 0 0 0 0 0 0 0 0 0 0 0 0 0 0
0 0 0 0 0 0 0 0 0 0 0 0 0 0 0 0 0 0 0 0 0 0 0 0 0 0 0 0 0 0 0 0 0 0 0 0 0 0 0 0 0 0 0 0
0 0 0 0 0 0 0 0 0 0 0 0 0 0 0 0 0 0 0 0 0 0 0 0 0 0 0 0 0 0 0 0 0 0 0 0 0 0 0 0 0 0 0 0
0 0 0 0 0 0 0 0 0 0 0 0 0 0 0 0 0 0 0 0 0 0 0 0 0 0 0 0 0 0 0 0 0 0 0 0 0 0 0 0 0 0 0 0
0 0 0 0 0 0 0 0 0 0 0 0 0 0 0 0 0 0 0 0 0 0 0 0 0 0 0 0 0 0 0 0 0 0 0 0 0 0 0 0 0 0 0 0
0 0 0 0 0 0 0 0 0 0 0 0 0 0 0 0 0 0 0 0 0 0 0 0 0 0 0 0 0 0 0 0 0 0 0 0 0 0 0 0 0 0 0 0
0 0 0 0 0 0 0 0 0 0 0 0 0 0 0 0 0 0 0 0 0 0 0 0 0 0 0 0 0 0 0 0 0 0 0 0 0 0 0 0 0 0 0 0
0 0 0 0 0 0 0 0 0 0 0 0 0 0 0 0 0 0 0 0 0 0 0 0 0 0 0 0 0 0 0 0 0 0 0 0 0 0 0 0 1 1 0 0
0 0 0 0 0 0 0 0 0 0 0 0 0 0 0 0 0 0 0 0 0 0 0 0 0 0 0 0 0 0 0 0 0 0 0 0 0 0 0 0 1 2 1 0
0 0 0 0 0 0 0 0 0 0 0 0 0 0 0 0 0 0 0 0 0 0 0 0 0 0 0 0 0 0 0 0 0 0 0 0 0 0 0 0 1 2 1 1
0 0 0 0 0 0 0 0 0 0 0 0 0 0 0 0 0 0 0 0 0 0 0 0 0 0 0 0 0 0 0 0 0 0 0 0 0 0 0 0 0 1 1 0
0 0 0 0 0 0 0 0 0 0 0 0 0 0 0 0 0 0 0 0 0 0 0 0 0 0 0 0 0 0 0 0 0 0 0 0 0 0 0 0 0 0 0 0
0 0 0 0 0 0 0 0 0 0 0 0 0 0 0 0 0 0 0 0 0 0 0 0 0 0 0 0 0 0 0 0 0 0 0 0 0 0 0 0 0 0 0 0
0 0 0 0 0 0 0 0 0 0 0 0 0 0 0 0 0 0 0 0 0 0 0 0 0 0 0 0 0 0 0 0 0 0 0 0 0 0 0 0 0 0 0 0
0 0 0 0 0 0 0 0 0 0 0 0 0 0 0 0 0 0 0 0 0 0 0 0 0 0 0 0 0 0 0 0 0 0 0 0 0 0 0 0 0 0 0 0
0 0 0 0 0 0 0 0 0 0 0 0 0 0 0 0 0 0 0 0 0 0 0 0 0 0 0 0 0 0 0 0 0 0 0 0 0 0 0 0 0 0 0 0
0 0 0 0 0 0 0 0 0 0 0 0 0 0 0 0 0 0 0 0 0 0 0 0 0 0 0 0 0 0 0 0 0 0 0 0 0 0 0 0 0 0 0 0
0 0 0 0 0 0 0 0 0 0 0 0 0 0 0 0 0 0 0 0 0 0 0 0 0 0 0 0 0 0 0 0 0 0 0 0 0 0 0 0 0 0 0 0
0 0 0 0 0 0 0 0 0 0 0 0 0 0 0 0 0 0 0 0 0 0 0 0 0 0 0 0 0 0 0 0 0 0 0 0 0 0 0 0 0 0 0 0
0 0 0 0 0 0 0 0 0 0 0 0 0 0 0 0 0 0 0 0 0 0 0 0 0 0 0 0 0 0 0 0 0 0 0 0 0 0 0 0 0 0 0 0
0 0 0 0 0 0 0 0 0 0 0 0 0 0 0 0 0 0 0 0 0 0 0 0 0 0 0 0 0 0 0 0 0 0 0 0 0 0 0 0 0 0 0 0
0 0 0 0 0 0 0 0 0 0 0 0 0 0 0 0 0 0 0 0 0 0 0 0 0 0 0 0 0 0 0 0 0 0 0 0 0 0 0 0 0 0 0 0
0 0 0 0 0 0 0 0 0 0 0 0 0 0 0 0 0 0 0 0 0 0 0 0 0 0 0 0 0 0 0 0 0 0 0 0 0 0 0 0 0 0 0 0
0 0 0 0 0 0 0 0 0 0 0 0 0 0 0 0 0 0 0 0 0 0 0 0 0 0 0 0 0 0 0 0 0 0 0 0 0 0 0 0 0 0 0 0
0 0 0 0 0 0 0 0 0 0 0 0 0 0 0 0 0 0 0 0 0 0 0 0 0 0 0 0 0 0 0 0 0 0 0 0 0 0 0 0 0 0 0 0
0 0 0 0 0 0 0 0 0 0 0 0 0 0 0 0 0 0 0 0 0 0 0 0 0 0 0 0 0 0 0 0 0 0 0 0 0 0 0 0 0 0 0 0
Wind_Speed
9 8 13 15 16 11 6 7 9 6 3 5 10 12 12 10 10 10 9 8 8 7 5 4 4 4 4 4 4 5 6 7 7 6 7 7 8 7 7 7 9 10 9 10
8 16 14 11 11 12 11 11 9 5 2 4 8 13 13 13 13 12 10 9 8 6 5 4 4 3 3 4 4 5 6 7 7 7 7 6 6 6 7 7 9 11 11 11
17 8 12 13 12 13 14 13 11 7 3 5 7 12 13 12 12 11 10 9 7 6 5 4 3 3 3 4 4 4 5 6 7 7 5 4 4 4 6 8 9 11 12 12
16 12 10 13 14 13 13 10 9 6 4 5 4 8 7 7 9 10 10 9 7 6 5 4 3 3 3 3 3 4 5 6 6 6 6 8 8 9 10 8 8 10 12 13
11 13 13 15 14 12 4 2 5 6 6 7 7 9 8 7 9 9 8 8 7 6 5 4 3 3 2 2 3 4 5 5 5 6 8 8 9 9 7 6 8 10 10 13
10 6 10 11 8 9 5 3 1 4 4 10 12 10 10 7 10 7 6 6 6 4 4 3 2 2 2 1 2 3 4 5 5 6 8 9 10 10 8 9 9 9 8 10
10 9 6 5 8 8 8 7 4 6 7 10 9 10 10 6 7 7 7 5 4 3 2 2 1 1 1 1 2 3 3 5 5 6 7 8 10 10 11 10 10 9 8 8
14 11 13 9 11 11 14 11 8 7 6 4 5 11 9 4 5 4 4 3 2 2 2 1 1 1 1 2 3 3 3 4 5 5 6 7 8 7 8 10 9 9 8 9
14 11 12 13 9 10 12 12 6 2 1 2 6 6 5 4 5 5 5 5 4 2 1 1 1 1 1 2 3 3 4 4 5 5 5 6 7 7 8 8 9 8 8 7
6 7 10 11 7 9 8 8 5 6 6 7 7 8 7 7 8 7 5 4 3 2 1 1 1 1 2 2 3 3 4 4 5 5 5 5 6 7 8 7 8 8 8 8
7 5 7 10 16 17 12 11 8 7 5 5 5 6 4 8 8 7 5 4 3 2 1 1 1 1 2 2 3 3 4 4 4 5 5 6 6 7 7 7 8 8 8 8
10 4 6 10 7 8 13 13 13 8 7 5 4 7 1 5 6 6 5 4 3 2 1 1 1 2 2 3 4 4 4 4 5 5 5 6 6 6 7 8 8 7 8 7
12 8 7 6 5 6 10 14 15 9 4 6 7 8 1 4 3 3 3 3 2 1 0 1 1 2 2 3 4 4 5 5 5 5 6 6 6 7 7 8 7 7 7 7
12 7 9 13 8 10 10 13 15 13 9 9 12 10 6 3 3 3 2 1 1 1 1 1 2 2 3 3 3 4 6 5 5 5 6 6 7 7 8 8 7 7 7 8
8 8 7 6 3 9 10 13 17 19 17 12 11 14 14 8 7 5 3 2 2 3 2 2 2 3 3 4 4 5 6 6 6 6 6 7 7 7 7 8 8 7 7 8
8 6 6 6 6 6 8 13 17 19 18 17 15 18 12 8 6 5 4 4 4 3 3 3 3 4 4 4 5 6 6 6 6 7 7 7 7 7 8 8 8 8 8 7
9 7 7 7 5 1 10 16 18 16 16 17 21 21 9 8 8 7 5 4 3 3 3 3 4 4 4 4 5 6 6 6 6 7 7 7 7 7 8 8 8 8 8 7
9 9 5 4 5 12 12 9 15 18 18 17 16 12 10 9 7 6 4 4 4 3 3 3 3 4 4 4 5 5 6 7 7 7 7 7 7 8 8 8 8 8 7 7
8 8 6 6 7 8 7 8 12 14 16 15 15 14 10 7 6 6 4 3 4 3 2 2 2 3 4 4 5 6 7 7 8 8 8 7 7 8 8 8 8 7 6 7
8 7 6 6 7 11 10 7 7 7 13 10 11 13 9 5 7 7 2 1 1 1 0 1 2 3 4 4 5 7 7 8 8 8 9 8 8 8 9 9 8 6 6 7
11 9 11 9 8 8 7 4 7 10 11 5 7 8 6 7 7 3 1 1 1 1 1 2 3 3 4 5 6 7 8 8 9 9 9 9 8 8 9 8 7 6 6 5
13 10 10 8 9 11 6 7 10 7 2 2 2 3 3 3 2 1 0 0 0 0 1 2 3 5 4 4 5 8 9 9 9 9 9 9 9 7 6 7 7 5 5 5
10 11 8 10 10 5 7 7 5 4 3 2 2 1 1 1 2 2 2 2 2 2 2 3 4 6 6 5 5 8 9 8 9 10 10 9 9 7 6 6 6 5 4 4
5 5 5 5 6 5 5 3 2 2 2 2 1 1 1 2 3 3 3 2 3 3 4 4 4 6 7 6 6 7 9 8 9 10 10 8 8 7 6 5 5 5 4 4
6 6 6 6 5 3 4 5 4 3 2 1 0 0 1 2 3 3 3 3 3 4 4 4 5 7 8 8 8 7 7 8 9 10 9 8 7 7 5 5 4 5 5 5
5 7 9 9 7 6 5 4 3 3 2 2 1 1 2 2 3 3 3 3 3 4 4 5 6 7 8 8 9 8 7 7 8 9 8 6 5 5 5 4 4 4 5 5
Wind_Direction
187 202 207 205 212 235 260 250 245 243 207 233 246 256 259 257 255 254 252 250 247 243 238 226 217 205 193 194 199 202 202 199 192 193 199 205 214 214 217 221 220 216 211 207
190 222 219 214 215 227 245 255 258 261 211 246 265 266 262 254 250 246 246 245 241 242 245 231 210 196 186 194 206 213 214 208 202 202 203 206 207 214 218 220 223 222 218 212
209 209 205 216 216 218 228 235 245 256 287 258 274 274 248 244 239 240 240 239 236 233 238 235 217 201 191 199 209 220 224 222 214 208 200 204 208 217 218 219 220 221 220 218
225 223 202 206 216 211 231 225 238 250 261 258 227 277 254 239 235 228 227 225 223 227 227 221 215 222 213 209 214 226 231 230 224 210 207 206 212 221 223 221 222 220 218 219
215 205 208 212 211 206 219 179 221 237 248 264 238 258 262 224 233 225 211 208 207 214 216 219 220 219 224 217 221 230 235 234 227 220 217 218 225 230 230 224 225 224 220 219
228 204 205 216 206 199 162 123 215 239 238 247 223 229 264 215 219 209 198 197 198 198 204 213 217 213 232 235 232 236 241 240 232 226 226 225 230 233 233 231 231 227 223 219
216 221 206 186 181 181 171 162 186 206 218 239 201 214 247 213 196 190 190 191 178 175 192 203 215 239 262 280 270 254 251 254 248 237 234 234 235 235 234 234 235 233 230 225
193 208 199 192 190 183 193 190 190 203 217 234 194 221 245 203 170 167 175 172 165 184 199 204 217 236 270 284 286 278 267 264 262 255 249 245 244 241 241 239 239 236 235 232
192 211 181 191 187 174 186 209 226 259 244 259 237 239 249 186 186 190 189 185 190 196 197 208 243 275 293 297 292 284 277 273 270 265 263 257 253 251 252 251 246 246 244 240
181 192 177 175 186 214 201 173 174 202 206 231 239 223 220 192 194 188 182 176 181 176 186 231 271 299 303 295 291 293 281 274 271 269 267 267 260 258 259 259 254 250 250 246
217 177 168 173 195 194 193 195 191 192 206 207 237 242 203 175 173 168 167 169 171 175 201 244 268 288 303 303 299 295 294 290 287 281 276 273 269 266 265 263 263 260 255 249
199 168 189 202 205 209 206 203 196 195 210 212 235 257 130 131 143 149 163 167 157 179 204 249 310 329 322 313 308 302 299 296 291 288 285 280 278 275 271 268 268 267 265 259
177 172 162 182 210 216 218 213 211 219 210 208 216 248 179 123 134 163 172 170 182 200 276 341 336 312 301 303 308 311 308 302 299 295 292 289 286 281 276 275 274 271 268 266
173 185 193 195 188 176 200 208 208 209 220 226 225 239 238 226 226 227 204 195 206 281 294 301 300 297 298 298 303 308 308 304 301 298 292 290 288 286 284 283 279 273 269 265
181 201 219 242 223 178 197 205 209 217 221 225 235 241 245 232 229 231 222 222 242 256 264 275 284 287 295 301 306 308 306 307 305 300 295 291 292 293 292 289 285 279 273 267
186 195 193 236 241 219 221 215 215 223 227 235 247 254 246 241 244 241 227 227 240 251 262 275 281 291 294 301 307 308 305 306 306 300 295 296 298 297 292 290 288 284 279 274
179 169 175 214 194 187 239 217 215 221 223 225 237 246 252 250 244 236 232 232 241 255 267 273 283 291 297 304 307 302 303 308 305 297 295 295 295 294 290 289 286 281 279 277
176 167 168 166 155 219 234 203 209 224 232 229 238 246 242 245 248 238 223 220 230 247 263 275 287 292 299 304 305 308 311 307 300 296 294 295 295 291 290 287 281 278 277 272
181 170 179 181 207 245 256 214 201 213 236 228 235 243 243 243 260 253 221 206 216 222 241 270 287 293 301 305 315 317 308 305 301 297 296 296 294 291 291 286 281 279 278 275
191 182 185 191 202 222 231 203 188 196 245 228 226 239 239 228 244 250 201 186 201 168 103 329 321 316 310 319 325 312 304 302 298 296 295 294 290 286 283 281 280 279 275 272
186 194 204 208 221 245 238 179 142 189 232 224 218 230 225 223 234 244 172 185 152 121 350 336 321 310 308 315 313 301 298 295 296 298 296 293 288 283 281 281 279 277 274 273
181 187 198 199 215 236 203 161 184 206 182 183 203 216 222 236 254 249 230 252 244 290 315 323 309 299 300 307 304 295 293 300 305 303 298 295 291 285 282 279 278 273 267 267
193 191 187 198 214 211 173 187 195 164 169 184 188 213 174 227 260 265 270 280 300 308 307 308 297 295 295 295 292 290 296 307 306 301 296 294 293 287 281 276 275 273 260 258
215 197 191 214 230 212 198 181 175 150 169 177 170 181 183 226 249 265 272 279 288 293 298 302 297 292 293 298 295 288 297 304 300 295 293 293 291 289 283 274 266 261 255 250
191 177 196 224 233 214 219 206 194 179 162 140 89 231 228 234 254 259 269 274 278 287 292 291 287 288 292 299 297 296 299 301 298 293 290 290 286 283 281 272 263 260 255 240
201 195 198 217 209 194 211 200 181 182 209 210 208 274 290 261 264 278 278 287 291 293 297 295 292 291 295 300 298 297 297 295 294 294 292 287 283 281 278 278 282 273 264 262